Change the Weather History Date:

Thursday, November 1, 2012

  Actual Average (KCAK) Record (KCAK)
Temperature  
Mean Temperature 38 °F 47 °F  
Max Temperature 40 °F 55 °F 79 °F (1950)
Min Temperature 36 °F 38 °F 25 °F (1954)
Degree Days  
Heating Degree Days 27 18  
Month to date heating degree days 18  
Since 1 July heating degree days 573  
Cooling Degree Days 0 0  
Month to date cooling degree days 0  
Year to date cooling degree days 652  
Moisture  
Dew Point 38 °F    
Average Humidity 97    
Maximum Humidity 100    
Minimum Humidity 88    
Precipitation  
Precipitation 0.03 in 0.11 in 1.13 in (1969)
Month to date precipitation 0.11  
Year to date precipitation 33.59  
Snow  
Snow 0.00 in 0.00 in - ()
Month to date snowfall 0.0  
Since 1 July snowfall 0.4  
Since 1 September snowfall 0.4  
Snow Depth -    
Sea Level Pressure  
Sea Level Pressure 29.68 in    
Wind  
Wind Speed 9 mph (WSW)    
Max Wind Speed 15 mph    
Max Gust Speed 23 mph    
Visibility 6 miles    
Events      
T = Trace of Precipitation, MM = Missing Value Source: NWS Daily Summary

Daily Weather History Graph

Daily Weather History Graph

Search for Another Location

Airport or City:

Trip Planner

Search our weather history database for the weather conditions in past years. The results will help you decide how hot, cold, wet, or windy it might be!

Date:

Astronomy

Nov. 01, 2012 Rise Set
Actual Time 7:56 AM EDT 6:19 PM EDT
Civil Twilight 7:28 AM EDT 6:48 PM EDT
Nautical Twilight 6:55 AM EDT 7:21 PM EDT
Astronomical Twilight 6:23 AM EDT 7:53 PM EDT
Moon 8:14 PM EDT (11/1) 10:29 AM EDT (11/1)
Length of Visible Light 11h 20m
Length of Day
10h 23m
Waning Gibbous, 93% of the Moon is Illuminated
Nov 1
Waning Gibbous
Nov 6
Last Quarter
Nov 13
New
Nov 20
First Quarter
Nov 28
Full

Hourly Weather History & Observations

Time (EDT) Temp. Windchill Dew Point Humidity Pressure Visibility Wind Dir Wind Speed Gust Speed Precip Events Conditions
12:14 AM 39.2 °F 33.0 °F 39.4 °F 100% 29.61 in 7.0 mi West 9.2 mph 17.3 mph N/A   Overcast
12:33 AM 39.2 °F 32.5 °F 39.4 °F 100% 29.61 in 5.0 mi West 10.4 mph 18.4 mph N/A   Overcast
12:54 AM 39.2 °F 32.5 °F 39.4 °F 100% 29.61 in 5.0 mi West 10.4 mph 20.7 mph N/A   Overcast
1:14 AM 39.2 °F 32.0 °F 39.4 °F 100% 29.61 in 5.0 mi West 11.5 mph 18.4 mph N/A   Overcast
1:34 AM 39.4 °F 31.8 °F 39.6 °F 100% 29.61 in 7.0 mi West 12.7 mph 16.1 mph N/A   Overcast
1:53 AM 39.2 °F 33.0 °F 39.4 °F 100% 29.61 in 5.0 mi West 9.2 mph - N/A   Overcast
2:14 AM 39.2 °F 32.5 °F 39.4 °F 100% 29.61 in 4.0 mi West 10.4 mph - N/A   Overcast
2:34 AM 39.2 °F 32.5 °F 39.4 °F 100% 29.62 in 2.5 mi WSW 10.4 mph - N/A   Overcast
2:53 AM 39.2 °F 33.0 °F 39.2 °F 100% 29.62 in 2.5 mi WSW 9.2 mph 16.1 mph N/A   Overcast
3:14 AM 38.8 °F 32.6 °F 39.2 °F 100% 29.63 in 3.0 mi WSW 9.2 mph 16.1 mph N/A   Overcast
3:34 AM 39.0 °F 32.3 °F 39.2 °F 100% 29.62 in 3.0 mi WSW 10.4 mph - N/A   Overcast
3:53 AM 38.8 °F 32.6 °F 39.2 °F 100% 29.62 in 3.0 mi WSW 9.2 mph - N/A   Overcast
4:14 AM 38.8 °F 32.1 °F 39.2 °F 100% 29.61 in 3.0 mi WSW 10.4 mph - N/A   Overcast
4:34 AM 38.7 °F 31.4 °F 38.8 °F 100% 29.62 in 3.0 mi WSW 11.5 mph - N/A   Overcast
4:54 AM 38.8 °F 32.1 °F 39.0 °F 100% 29.62 in 4.0 mi West 10.4 mph - 0.01 in   Overcast
5:14 AM 38.7 °F 30.9 °F 39.0 °F 100% 29.63 in 3.0 mi West 12.7 mph - N/A   Overcast
5:34 AM 38.8 °F 33.2 °F 39.0 °F 100% 29.63 in 3.0 mi West 8.1 mph - N/A   Overcast
5:53 AM 38.8 °F 32.6 °F 39.2 °F 100% 29.63 in 3.0 mi West 9.2 mph - N/A   Overcast
6:14 AM 38.8 °F 32.1 °F 39.0 °F 100% 29.63 in 3.0 mi West 10.4 mph - N/A   Overcast
6:34 AM 38.8 °F 32.6 °F 39.0 °F 100% 29.63 in 2.5 mi West 9.2 mph - N/A   Overcast
6:53 AM 38.7 °F 31.8 °F 39.0 °F 100% 29.64 in 4.0 mi West 10.4 mph 16.1 mph N/A   Overcast
7:14 AM 38.7 °F 32.9 °F 39.0 °F 100% 29.64 in 4.0 mi West 8.1 mph - N/A   Overcast
7:34 AM 38.7 °F 32.4 °F 38.8 °F 100% 29.64 in 3.0 mi West 9.2 mph - N/A   Overcast
7:54 AM 38.7 °F 31.4 °F 39.0 °F 100% 29.65 in 5.0 mi WSW 11.5 mph 17.3 mph 0.01 in   Overcast
8:14 AM 38.7 °F 31.4 °F 38.8 °F 100% 29.66 in 3.0 mi West 11.5 mph - N/A   Overcast
8:34 AM 38.5 °F 31.1 °F 38.7 °F 100% 29.66 in 4.0 mi West 11.5 mph 16.1 mph N/A   Overcast
8:53 AM 38.7 °F 31.8 °F 38.8 °F 100% 29.66 in 2.5 mi WSW 10.4 mph - N/A   Overcast
9:14 AM 38.7 °F 31.8 °F 38.8 °F 100% 29.67 in 2.0 mi WSW 10.4 mph - 0.01 in   Overcast
9:34 AM 38.7 °F 31.8 °F 39.0 °F 100% 29.68 in 2.0 mi West 10.4 mph - 0.01 in   Overcast
9:53 AM 38.8 °F 31.6 °F 39.2 °F 100% 29.68 in 3.0 mi West 11.5 mph 18.4 mph 0.01 in   Overcast
10:14 AM 39.2 °F 32.5 °F 39.4 °F 100% 29.68 in 5.0 mi West 10.4 mph - N/A   Overcast
10:34 AM 39.4 °F 33.2 °F 39.6 °F 100% 29.68 in 7.0 mi West 9.2 mph 16.1 mph N/A   Overcast
10:53 AM 39.6 °F 34.0 °F 39.7 °F 100% 29.69 in 5.0 mi West 8.1 mph 19.6 mph N/A   Overcast
11:14 AM 39.7 °F 33.2 °F 39.6 °F 99% 29.69 in 10.0 mi West 10.4 mph 19.6 mph N/A   Overcast
11:33 AM 39.7 °F 32.7 °F 39.4 °F 99% 29.69 in 7.0 mi WSW 11.5 mph - N/A   Overcast
11:54 AM 40.1 °F 33.6 °F 40.1 °F 100% 29.69 in 4.0 mi West 10.4 mph 16.1 mph N/A   Overcast
12:14 PM 39.4 °F 31.8 °F 39.6 °F 100% 29.69 in 3.0 mi West 12.7 mph 16.1 mph N/A   Overcast
12:33 PM 39.7 °F 33.7 °F 39.4 °F 99% 29.69 in 10.0 mi West 9.2 mph 16.1 mph N/A   Overcast
12:54 PM 39.6 °F 33.0 °F 39.2 °F 99% 29.69 in 5.0 mi West 10.4 mph 17.3 mph N/A   Overcast
1:14 PM 39.4 °F 31.8 °F 39.2 °F 99% 29.69 in 3.0 mi WSW 12.7 mph 16.1 mph N/A   Overcast
1:34 PM 39.4 °F 32.7 °F 39.6 °F 100% 29.69 in 3.0 mi West 10.4 mph - N/A   Overcast
1:54 PM 40.1 °F 34.1 °F 39.9 °F 99% 29.69 in 10.0 mi West 9.2 mph - N/A   Overcast
2:14 PM 39.7 °F 33.2 °F 39.4 °F 99% 29.69 in 2.0 mi West 10.4 mph 19.6 mph N/A   Overcast
2:34 PM 39.4 °F 31.8 °F 39.4 °F 100% 29.69 in 3.0 mi West 12.7 mph 23.0 mph N/A   Overcast
2:54 PM 39.4 °F 31.1 °F 39.2 °F 99% 29.69 in 3.0 mi West 15.0 mph - N/A   Overcast
3:14 PM 39.2 °F 32.0 °F 38.3 °F 97% 29.69 in 4.0 mi West 11.5 mph 18.4 mph N/A   Overcast
3:33 PM 39.2 °F 30.8 °F 37.6 °F 94% 29.69 in 10.0 mi West 15.0 mph 18.4 mph N/A   Overcast
3:54 PM 39.2 °F 32.0 °F 36.3 °F 89% 29.69 in 10.0 mi West 11.5 mph - N/A   Overcast
4:14 PM 39.2 °F 31.6 °F 35.8 °F 88% 29.70 in 10.0 mi West 12.7 mph 18.4 mph N/A   Overcast
4:33 PM 39.2 °F 33.0 °F 36.0 °F 88% 29.70 in 10.0 mi West 9.2 mph 17.3 mph N/A   Overcast
4:54 PM 39.2 °F 32.0 °F 36.3 °F 89% 29.71 in 10.0 mi West 11.5 mph 16.1 mph N/A   Overcast
5:14 PM 38.7 °F 31.4 °F 36.5 °F 92% 29.71 in 7.0 mi West 11.5 mph - N/A   Overcast
5:34 PM 38.3 °F 30.5 °F 36.5 °F 93% 29.72 in 10.0 mi West 12.7 mph - N/A   Overcast
5:53 PM 38.3 °F 30.9 °F 36.5 °F 93% 29.72 in 10.0 mi West 11.5 mph 16.1 mph N/A   Overcast
6:14 PM 38.3 °F 34.8 °F 35.8 °F 91% 29.72 in 10.0 mi WSW 4.6 mph - N/A   Overcast
6:34 PM 38.3 °F 33.9 °F 35.8 °F 91% 29.72 in 10.0 mi SW 5.8 mph - N/A   Overcast
6:53 PM 38.3 °F 34.8 °F 35.6 °F 90% 29.73 in 10.0 mi WSW 4.6 mph - N/A   Overcast
7:14 PM 38.1 °F 35.7 °F 35.1 °F 89% 29.74 in 10.0 mi WSW 3.5 mph - N/A   Overcast
7:34 PM 37.2 °F - 35.2 °F 93% 29.74 in 10.0 mi Calm Calm - N/A   Overcast
7:53 PM 36.3 °F - 35.6 °F 97% 29.75 in 10.0 mi Calm Calm - N/A   Scattered Clouds
8:14 PM 36.3 °F - 35.1 °F 95% 29.75 in 10.0 mi Calm Calm - N/A   Mostly Cloudy
8:34 PM 36.1 °F - 35.1 °F 96% 29.74 in 10.0 mi Calm Calm - N/A   Overcast
8:54 PM 36.0 °F - 35.2 °F 97% 29.74 in 10.0 mi Calm Calm - N/A   Overcast
9:14 PM 36.0 °F - 35.4 °F 98% 29.73 in 10.0 mi Calm Calm - N/A   Overcast
9:34 PM 36.0 °F - 35.1 °F 97% 29.73 in 10.0 mi Calm Calm - N/A   Overcast
9:53 PM 36.1 °F - 35.1 °F 96% 29.73 in 10.0 mi Calm Calm - N/A   Overcast
10:14 PM 36.5 °F - 35.1 °F 95% 29.74 in 10.0 mi Calm Calm - N/A   Overcast
10:34 PM 36.5 °F 33.9 °F 35.1 °F 95% 29.73 in 10.0 mi SW 3.5 mph - N/A   Overcast
10:53 PM 37.0 °F 33.3 °F 35.1 °F 93% 29.73 in 10.0 mi WSW 4.6 mph - N/A   Overcast
11:14 PM 37.4 °F 32.8 °F 35.2 °F 92% 29.73 in 10.0 mi WSW 5.8 mph - N/A   Overcast
11:34 PM 37.8 °F 33.3 °F 35.6 °F 92% 29.73 in 10.0 mi WSW 5.8 mph - N/A   Overcast
11:53 PM 37.9 °F 32.7 °F 35.1 °F 89% 29.73 in 10.0 mi West 6.9 mph - N/A   Overcast